ProjectID,Date,Electric Generation,Electric Utility Import,Facility Electric Load
,YYYY-MM-DD,kW,kW,kW
15,2004-04-01,0.0,,0.0
15,2004-04-02,0.0,,0.0
15,2004-04-03,0.0,,0.0
15,2004-04-04,0.0,,0.0
15,2004-04-05,0.0,,0.0
15,2004-04-06,0.0,,0.0
15,2004-04-07,0.0,,0.0
15,2004-04-08,0.0,,0.0
15,2004-04-09,0.0,,0.0
15,2004-04-10,0.0,,0.0
15,2004-04-11,0.0,,0.0
15,2004-04-12,74.641,0.0,74.641
15,2004-04-13,891.1992916666667,0.0,891.1992916666667
15,2004-04-14,1165.2661249999999,0.0,1165.2661249999999
15,2004-04-15,1203.4036250000001,0.0,1203.4036250000001
15,2004-04-16,1233.7027916666666,0.0,1233.7027916666666
15,2004-04-17,1047.76725,0.0,1047.76725
15,2004-04-18,804.4664166666666,0.0,804.4664166666666
15,2004-04-19,835.9229166666668,0.0,835.9229166666668
15,2004-04-20,1334.9078333333334,0.0,1334.9078333333334
15,2004-04-21,1335.580625,0.0,1335.580625
15,2004-04-22,1299.24175,0.0,1299.24175
15,2004-04-23,1222.4097916666667,0.0,1222.4097916666667
15,2004-04-24,1059.384125,0.0,1059.384125
15,2004-04-25,816.2744583333333,0.0,816.2744583333333
15,2004-04-26,1276.9909583333333,0.0,1276.9909583333333
15,2004-04-27,1285.629125,0.0,1285.629125
15,2004-04-28,1320.5902916666666,0.0,1320.5902916666666
15,2004-04-29,602.045875,0.0,602.045875
15,2004-04-30,1294.1345416666666,0.0,1294.1345416666666
15,2004-05-01,1017.60025,0.0,1017.60025
15,2004-05-02,923.4397083333333,0.0,923.4397083333333
15,2004-05-03,1260.2673750000001,0.0,1260.2673750000001
15,2004-05-04,133.89370833333334,0.0,133.89370833333334
15,2004-05-05,0.0,,0.0
15,2004-05-06,0.0,,0.0
15,2004-05-07,0.0,,0.0
15,2004-05-08,0.0,,0.0
15,2004-05-09,646.5562083333333,0.0,646.5562083333333
15,2004-05-10,127.718,0.0,127.718
15,2004-05-11,0.0,,0.0
15,2004-05-12,0.0,,0.0
15,2004-05-13,1646.887625,0.0,1646.887625
15,2004-05-14,1509.7347499999998,0.0,1509.7347499999998
15,2004-05-15,1170.1605,0.0,1170.1605
15,2004-05-16,804.194375,0.0,804.194375
15,2004-05-17,1201.0757083333333,0.0,1201.0757083333333
15,2004-05-18,1420.1803333333335,0.0,1420.1803333333335
15,2004-05-19,1049.3373333333334,0.0,1049.3373333333334
15,2004-05-20,1081.6727916666666,0.0,1081.6727916666666
15,2004-05-21,1448.9944583333333,0.0,1448.9944583333333
15,2004-05-22,918.3694999999999,0.0,918.3694999999999
15,2004-05-23,800.1659166666667,0.0,800.1659166666667
15,2004-05-24,1368.5067499999998,0.0,1368.5067499999998
15,2004-05-25,1369.2859583333332,0.0,1369.2859583333332
15,2004-05-26,517.45075,0.0,517.45075
15,2004-05-27,915.5405416666667,0.0,915.5405416666667
15,2004-05-28,1133.7925416666667,0.0,1133.7925416666667
15,2004-05-29,680.1187083333333,0.0,680.1187083333333
15,2004-05-30,607.9313333333333,0.0,607.9313333333333
15,2004-05-31,772.2221249999999,0.0,772.2221249999999
15,2004-06-01,729.7386666666666,0.0,729.7386666666666
15,2004-06-02,1123.622125,0.0,1123.622125
15,2004-06-03,800.5640416666666,0.0,800.5640416666666
15,2004-06-04,1167.535375,0.0,1167.535375
15,2004-06-05,793.8153333333333,0.0,793.8153333333333
15,2004-06-06,708.5494166666667,0.0,708.5494166666667
15,2004-06-07,1232.3276666666668,0.0,1232.3276666666668
15,2004-06-08,1038.29175,0.0,1038.29175
15,2004-06-09,1037.8049166666667,0.0,1037.8049166666667
15,2004-06-10,828.7067499999999,0.0,828.7067499999999
15,2004-06-11,1158.1000000000001,0.0,1158.1000000000001
15,2004-06-12,692.0584166666666,0.0,692.0584166666666
15,2004-06-13,753.3851249999999,0.0,753.3851249999999
15,2004-06-14,1168.3499166666668,0.0,1168.3499166666668
15,2004-06-15,1245.2040416666666,0.0,1245.2040416666666
15,2004-06-16,1269.1008749999999,0.0,1269.1008749999999
15,2004-06-17,243.89545833333332,0.0,243.89545833333332
15,2004-06-18,1286.05075,0.0,1286.05075
15,2004-06-19,758.2922083333333,0.0,758.2922083333333
15,2004-06-20,743.0687083333333,0.0,743.0687083333333
15,2004-06-21,1264.858125,0.0,1264.858125
15,2004-06-22,1273.890375,0.0,1273.890375
15,2004-06-23,1192.8055416666666,0.0,1192.8055416666666
15,2004-06-24,1602.4167083333332,0.0,1602.4167083333332
15,2004-06-25,1306.3950833333333,0.0,1306.3950833333333
15,2004-06-26,928.8646666666667,0.0,928.8646666666667
15,2004-06-27,864.577875,0.0,864.577875
15,2004-06-28,1353.9568333333334,0.0,1353.9568333333334
15,2004-06-29,1259.5313333333334,0.0,1259.5313333333334
15,2004-06-30,1410.1121249999999,0.0,1410.1121249999999
15,2004-07-01,1612.4733749999998,0.0,1612.4733749999998
15,2004-07-02,1482.8116666666667,0.0,1482.8116666666667
15,2004-07-03,1197.139875,0.0,1197.139875
15,2004-07-04,1198.3548333333333,0.0,1198.3548333333333
15,2004-07-05,1165.5181666666667,0.0,1165.5181666666667
15,2004-07-06,1449.2404583333334,0.0,1449.2404583333334
15,2004-07-07,1590.8564166666665,0.0,1590.8564166666665
15,2004-07-08,1627.3831666666667,0.0,1627.3831666666667
15,2004-07-09,1356.0991666666666,0.0,1356.0991666666666
15,2004-07-10,1127.2355,0.0,1127.2355
15,2004-07-11,1048.917375,0.0,1048.917375
15,2004-07-12,1035.905125,0.0,1035.905125
15,2004-07-13,1008.0076666666668,0.0,1008.0076666666668
15,2004-07-14,470.153625,0.0,470.153625
15,2004-07-15,424.783375,0.0,424.783375
15,2004-07-16,473.53950000000003,0.0,473.53950000000003
15,2004-07-17,873.1784166666666,0.0,873.1784166666666
15,2004-07-18,1117.4654166666667,0.0,1117.4654166666667
15,2004-07-19,155.419375,0.0,155.419375
15,2004-07-20,0.0,,0.0
15,2004-07-21,0.0,,0.0
15,2004-07-22,0.0,,0.0
15,2004-07-23,0.0,,0.0
15,2004-07-24,0.0,,0.0
15,2004-07-25,0.0,,0.0
15,2004-07-26,776.0396666666667,0.0,776.0396666666667
15,2004-07-27,968.4983333333333,0.0,968.4983333333333
15,2004-07-28,135.77295833333332,0.0,135.77295833333332
15,2004-07-29,0.0,,0.0
15,2004-07-30,103.74379166666667,0.0,103.74379166666667
15,2004-07-31,46.3945,0.0,46.3945
15,2004-08-01,0.0,,0.0
15,2004-08-02,0.0,,0.0
15,2004-08-03,508.93604166666665,0.0,508.93604166666665
15,2004-08-04,581.5730416666667,0.0,581.5730416666667
15,2004-08-05,584.235375,0.0,584.235375
15,2004-08-06,770.0645416666666,0.0,770.0645416666666
15,2004-08-07,842.30975,0.0,842.30975
15,2004-08-08,568.7659166666666,0.0,568.7659166666666
15,2004-08-09,946.5152083333334,0.0,946.5152083333334
15,2004-08-10,685.4623750000001,0.0,685.4623750000001
15,2004-08-11,817.9757500000001,0.0,817.9757500000001
15,2004-08-12,831.5460416666666,0.0,831.5460416666666
15,2004-08-13,737.0785,0.0,737.0785
15,2004-08-14,1076.616,0.0,1076.616
15,2004-08-15,1085.8459166666667,0.0,1085.8459166666667
15,2004-08-16,1001.7333333333332,0.0,1001.7333333333332
15,2004-08-17,1378.0551249999999,0.0,1378.0551249999999
15,2004-08-18,530.8167500000001,0.0,530.8167500000001
15,2004-08-19,176.38895833333333,0.0,176.38895833333333
15,2004-08-20,0.0,,0.0
15,2004-08-21,0.0,,0.0
15,2004-08-22,0.0,,0.0
15,2004-08-23,0.0,,0.0
15,2004-08-24,518.7459583333333,0.0,518.7459583333333
15,2004-08-25,626.4130416666667,0.0,626.4130416666667
15,2004-08-26,173.75625,0.0,173.75625
15,2004-08-27,0.0,,0.0
15,2004-08-28,53.563874999999996,0.0,53.563874999999996
15,2004-08-29,0.0,,0.0
15,2004-08-30,0.0,,0.0
15,2004-08-31,589.2736249999999,0.0,589.2736249999999
15,2004-09-01,0.0,,0.0
15,2004-09-02,234.56254166666668,0.0,234.56254166666668
15,2004-09-03,0.0,,0.0
15,2004-09-04,0.0,,0.0
15,2004-09-05,0.0,,0.0
15,2004-09-06,0.0,,0.0
15,2004-09-07,0.0,,0.0
15,2004-09-08,0.0,,0.0
15,2004-09-09,0.0,,0.0
15,2004-09-10,0.0,,0.0
15,2004-09-11,0.0,,0.0
15,2004-09-12,0.0,,0.0
15,2004-09-13,0.0,,0.0
15,2004-09-14,497.43870833333335,0.0,497.43870833333335
15,2004-09-15,686.7464583333334,0.0,686.7464583333334
15,2004-09-16,268.71875,0.0,268.71875
15,2004-09-17,1754.7237916666666,0.0,1754.7237916666666
15,2004-09-18,301.74858333333333,0.0,301.74858333333333
15,2004-09-19,1067.9528333333333,0.0,1067.9528333333333
15,2004-09-20,303.36879166666665,0.0,303.36879166666665
15,2004-09-21,49.61029166666666,0.0,49.61029166666666
15,2004-09-22,366.4155,0.0,366.4155
15,2004-09-23,812.5774583333333,0.0,812.5774583333333
15,2004-09-24,1832.4800833333331,0.0,1832.4800833333331
15,2004-09-25,1187.6192916666666,0.0,1187.6192916666666
15,2004-09-26,1010.7564166666666,0.0,1010.7564166666666
15,2004-09-27,1668.1834166666667,0.0,1668.1834166666667
15,2004-09-28,1904.4435,0.0,1904.4435
15,2004-09-29,1838.4764583333333,0.0,1838.4764583333333
15,2004-09-30,1787.6735833333332,0.0,1787.6735833333332
15,2004-10-01,1654.4430833333333,0.0,1654.4430833333333
15,2004-10-02,1249.4334166666665,0.0,1249.4334166666665
15,2004-10-03,1072.2676666666666,0.0,1072.2676666666666
15,2004-10-04,1674.8442916666665,0.0,1674.8442916666665
15,2004-10-05,1590.8448333333333,0.0,1590.8448333333333
15,2004-10-06,1718.1656666666668,0.0,1718.1656666666668
15,2004-10-07,1882.2635833333334,0.0,1882.2635833333334
15,2004-10-08,1766.7290416666667,0.0,1766.7290416666667
15,2004-10-09,1167.00675,0.0,1167.00675
15,2004-10-10,931.9925416666666,0.0,931.9925416666666
15,2004-10-11,1458.9826249999999,0.0,1458.9826249999999
15,2004-10-12,1772.9025000000001,0.0,1772.9025000000001
15,2004-10-13,1891.4159583333333,0.0,1891.4159583333333
15,2004-10-14,1909.4179166666665,0.0,1909.4179166666665
15,2004-10-15,1957.1085,0.0,1957.1085
15,2004-10-16,1492.959125,0.0,1492.959125
15,2004-10-17,1370.4974583333333,0.0,1370.4974583333333
15,2004-10-18,1903.2602916666667,0.0,1903.2602916666667
15,2004-10-19,1913.3403333333333,0.0,1913.3403333333333
15,2004-10-20,1962.1147083333333,0.0,1962.1147083333333
15,2004-10-21,1970.6203333333333,0.0,1970.6203333333333
15,2004-10-22,1879.2939999999999,0.0,1879.2939999999999
15,2004-10-23,1450.9667916666667,0.0,1450.9667916666667
15,2004-10-24,1286.6337916666666,0.0,1286.6337916666666
15,2004-10-25,1893.1259583333333,0.0,1893.1259583333333
15,2004-10-26,1947.4786666666666,0.0,1947.4786666666666
15,2004-10-27,1991.3151666666665,0.0,1991.3151666666665
15,2004-10-28,1932.3511250000001,0.0,1932.3511250000001
15,2004-10-29,1880.4083333333335,0.0,1880.4083333333335
15,2004-10-30,1463.394125,0.0,1463.394125
15,2004-10-31,1326.6446250000001,0.0,1326.6446250000001
15,2004-11-01,1913.7816249999998,0.0,1913.7816249999998
15,2004-11-02,1973.0599166666668,0.0,1973.0599166666668
15,2004-11-03,1955.7019166666666,0.0,1955.7019166666666
15,2004-11-04,1803.46325,0.0,1803.46325
15,2004-11-05,1736.533625,0.0,1736.533625
15,2004-11-06,1441.8892916666666,0.0,1441.8892916666666
15,2004-11-07,1324.6200000000001,0.0,1324.6200000000001
15,2004-11-08,1786.4863750000002,0.0,1786.4863750000002
15,2004-11-09,1841.6257083333333,0.0,1841.6257083333333
15,2004-11-10,1880.6870416666668,0.0,1880.6870416666668
15,2004-11-11,1963.5862916666667,0.0,1963.5862916666667
15,2004-11-12,1838.9906666666666,0.0,1838.9906666666666
15,2004-11-13,1533.771375,0.0,1533.771375
15,2004-11-14,1278.5428749999999,0.0,1278.5428749999999
15,2004-11-15,1809.0505,0.0,1809.0505
15,2004-11-16,1916.7868333333333,0.0,1916.7868333333333
15,2004-11-17,1897.7610000000002,0.0,1897.7610000000002
15,2004-11-18,1873.7171666666666,0.0,1873.7171666666666
15,2004-11-19,1799.0979583333335,0.0,1799.0979583333335
15,2004-11-20,1463.7994583333332,0.0,1463.7994583333332
15,2004-11-21,1381.7,0.0,1381.7
15,2004-11-22,0.0,,0.0
15,2004-11-23,60.55975,0.0,60.55975
15,2004-11-24,0.0,,0.0
15,2004-11-25,0.0,,0.0
15,2004-11-26,0.0,,0.0
15,2004-11-27,0.0,,0.0
15,2004-11-28,0.0,,0.0
15,2004-11-29,0.0,,0.0
15,2004-11-30,0.0,,0.0
15,2004-12-01,1554.518625,0.0,1554.518625
15,2004-12-02,1621.1457916666668,0.0,1621.1457916666668
15,2004-12-03,1606.2425416666667,0.0,1606.2425416666667
15,2004-12-04,1283.3467916666666,0.0,1283.3467916666666
15,2004-12-05,1161.881375,0.0,1161.881375
15,2004-12-06,1685.5500833333333,0.0,1685.5500833333333
15,2004-12-07,1694.0640416666665,0.0,1694.0640416666665
15,2004-12-08,1633.5805833333334,0.0,1633.5805833333334
15,2004-12-09,1696.6990416666667,0.0,1696.6990416666667
15,2004-12-10,1594.5185416666666,0.0,1594.5185416666666
15,2004-12-11,1258.3146666666667,0.0,1258.3146666666667
15,2004-12-12,1124.2482083333332,0.0,1124.2482083333332
15,2004-12-13,1609.2326249999999,0.0,1609.2326249999999
15,2004-12-14,1724.859375,0.0,1724.859375
15,2004-12-15,1739.3214166666667,0.0,1739.3214166666667
15,2004-12-16,1714.21875,0.0,1714.21875
15,2004-12-17,1547.0185000000001,0.0,1547.0185000000001
15,2004-12-18,1352.019375,0.0,1352.019375
15,2004-12-19,1256.69075,0.0,1256.69075
15,2004-12-20,1635.9300833333334,0.0,1635.9300833333334
15,2004-12-21,1617.6966666666667,0.0,1617.6966666666667
15,2004-12-22,1610.2867083333333,0.0,1610.2867083333333
15,2004-12-23,1572.61525,0.0,1572.61525
15,2004-12-24,1118.1745833333332,0.0,1118.1745833333332
15,2004-12-25,1119.1045833333333,0.0,1119.1045833333333
15,2004-12-26,1160.076875,0.0,1160.076875
15,2004-12-27,1371.5481666666667,0.0,1371.5481666666667
15,2004-12-28,1730.1097916666668,0.0,1730.1097916666668
15,2004-12-29,1738.7440416666668,0.0,1738.7440416666668
15,2004-12-30,1697.9516666666666,0.0,1697.9516666666666
15,2004-12-31,1333.0287916666666,0.0,1333.0287916666666
15,2005-01-01,1325.226375,0.0,1325.226375
15,2005-01-02,1402.4969583333334,0.0,1402.4969583333334
15,2005-01-03,1359.9190416666668,0.0,1359.9190416666668
15,2005-01-04,1621.9290833333334,0.0,1621.9290833333334
15,2005-01-05,1733.4705416666666,0.0,1733.4705416666666
15,2005-01-06,1684.1069583333335,0.0,1684.1069583333335
15,2005-01-07,1723.4545833333334,0.0,1723.4545833333334
15,2005-01-08,1414.1723333333332,0.0,1414.1723333333332
15,2005-01-09,1359.6378750000001,0.0,1359.6378750000001
15,2005-01-10,1690.555875,0.0,1690.555875
15,2005-01-11,1766.7712083333333,0.0,1766.7712083333333
15,2005-01-12,1767.7503749999998,0.0,1767.7503749999998
15,2005-01-13,1783.4560416666666,0.0,1783.4560416666666
15,2005-01-14,1778.9058333333332,0.0,1778.9058333333332
15,2005-01-15,1516.1850416666666,0.0,1516.1850416666666
15,2005-01-16,1432.7639166666668,0.0,1432.7639166666668
15,2005-01-17,1786.5065000000002,0.0,1786.5065000000002
15,2005-01-18,2010.963625,0.0,2010.963625
15,2005-01-19,2057.794125,0.0,2057.794125
15,2005-01-20,1999.6689166666665,0.0,1999.6689166666665
15,2005-01-21,1976.20375,0.0,1976.20375
15,2005-01-22,1617.46875,0.0,1617.46875
15,2005-01-23,1543.0405,0.0,1543.0405
15,2005-01-24,1972.5535,0.0,1972.5535
15,2005-01-25,2013.5602500000002,0.0,2013.5602500000002
15,2005-01-26,1977.7845833333333,0.0,1977.7845833333333
15,2005-01-27,2041.959791666667,0.0,2041.959791666667
15,2005-01-28,1992.1737916666668,0.0,1992.1737916666668
15,2005-01-29,1577.2842916666666,0.0,1577.2842916666666
15,2005-01-30,1463.9344583333334,0.0,1463.9344583333334
15,2005-01-31,1946.480375,0.0,1946.480375
15,2005-02-01,1936.6692916666668,0.0,1936.6692916666668
15,2005-02-02,1974.026125,0.0,1974.026125
15,2005-02-03,1960.0881666666667,0.0,1960.0881666666667
15,2005-02-04,1848.47425,0.0,1848.47425
15,2005-02-05,1556.2645833333333,0.0,1556.2645833333333
15,2005-02-06,1432.269,0.0,1432.269
15,2005-02-07,1914.1285416666667,0.0,1914.1285416666667
15,2005-02-08,1827.281875,0.0,1827.281875
15,2005-02-09,1963.1133333333335,0.0,1963.1133333333335
15,2005-02-10,1952.483875,0.0,1952.483875
15,2005-02-11,1876.391625,0.0,1876.391625
15,2005-02-12,1530.2039166666666,0.0,1530.2039166666666
15,2005-02-13,1421.8739166666667,0.0,1421.8739166666667
15,2005-02-14,1892.445625,0.0,1892.445625
15,2005-02-15,1924.0390416666667,0.0,1924.0390416666667
15,2005-02-16,1827.371125,0.0,1827.371125
15,2005-02-17,1941.3746250000002,0.0,1941.3746250000002
15,2005-02-18,1876.0319583333333,0.0,1876.0319583333333
15,2005-02-19,1540.1972916666666,0.0,1540.1972916666666
15,2005-02-20,1420.9752500000002,0.0,1420.9752500000002
15,2005-02-21,1853.4450416666666,0.0,1853.4450416666666
15,2005-02-22,1907.1125416666666,0.0,1907.1125416666666
15,2005-02-23,1956.8093333333334,0.0,1956.8093333333334
15,2005-02-24,1967.2877083333333,0.0,1967.2877083333333
15,2005-02-25,1890.701,0.0,1890.701
15,2005-02-26,1543.7665833333333,0.0,1543.7665833333333
15,2005-02-27,1456.0122916666667,0.0,1456.0122916666667
15,2005-02-28,1905.722,0.0,1905.722
15,2005-03-01,1746.8367916666666,0.0,1746.8367916666666
15,2005-03-02,1892.8410000000001,0.0,1892.8410000000001
15,2005-03-03,1958.7681666666667,0.0,1958.7681666666667
15,2005-03-04,1892.8433333333332,0.0,1892.8433333333332
15,2005-03-05,1543.4840833333335,0.0,1543.4840833333335
15,2005-03-06,1430.309125,0.0,1430.309125
15,2005-03-07,1834.7949166666667,0.0,1834.7949166666667
15,2005-03-08,1786.3435833333333,0.0,1786.3435833333333
15,2005-03-09,1893.0027916666668,0.0,1893.0027916666668
15,2005-03-10,1897.2479583333334,0.0,1897.2479583333334
15,2005-03-11,1807.4637916666668,0.0,1807.4637916666668
15,2005-03-12,1447.8800416666666,0.0,1447.8800416666666
15,2005-03-13,1341.5551666666668,0.0,1341.5551666666668
15,2005-03-14,1860.2203749999999,0.0,1860.2203749999999
15,2005-03-15,1921.1522916666665,0.0,1921.1522916666665
15,2005-03-16,1920.1892083333332,0.0,1920.1892083333332
15,2005-03-17,1911.3836666666666,0.0,1911.3836666666666
15,2005-03-18,1827.0795,0.0,1827.0795
15,2005-03-19,1485.7236666666668,0.0,1485.7236666666668
15,2005-03-20,1404.1450833333336,0.0,1404.1450833333336
15,2005-03-21,1851.9185,0.0,1851.9185
15,2005-03-22,1892.6480416666666,0.0,1892.6480416666666
15,2005-03-23,1849.0505833333334,0.0,1849.0505833333334
15,2005-03-24,1577.1515416666668,0.0,1577.1515416666668
15,2005-03-25,1305.911,0.0,1305.911
15,2005-03-26,1204.7843333333333,0.0,1204.7843333333333
15,2005-03-27,1135.5829999999999,0.0,1135.5829999999999
15,2005-03-28,1214.4050833333333,0.0,1214.4050833333333
15,2005-03-29,1200.5207916666666,0.0,1200.5207916666666
15,2005-03-30,1444.8099583333333,0.0,1444.8099583333333
15,2005-03-31,1481.9984166666666,0.0,1481.9984166666666
15,2005-04-01,1450.3849166666666,0.0,1450.3849166666666
15,2005-04-02,1243.2997083333332,0.0,1243.2997083333332
15,2005-04-03,1041.6115416666667,0.0,1041.6115416666667
15,2005-04-04,1693.4759583333334,0.0,1693.4759583333334
15,2005-04-05,1753.0268749999998,0.0,1753.0268749999998
15,2005-04-06,1791.6105,0.0,1791.6105
15,2005-04-07,1793.6125,0.0,1793.6125
15,2005-04-08,1696.4215833333335,0.0,1696.4215833333335
15,2005-04-09,1360.6111666666668,0.0,1360.6111666666668
15,2005-04-10,1270.6334166666668,0.0,1270.6334166666668
15,2005-04-11,0.0,,0.0
15,2005-04-12,556.0570416666667,0.0,556.0570416666667
15,2005-04-13,1586.7928333333332,0.0,1586.7928333333332
15,2005-04-14,1801.3952916666667,0.0,1801.3952916666667
15,2005-04-15,1801.0159583333334,0.0,1801.0159583333334
15,2005-04-16,1438.5901666666666,0.0,1438.5901666666666
15,2005-04-17,1328.04125,0.0,1328.04125
15,2005-04-18,1838.4882916666666,0.0,1838.4882916666666
15,2005-04-19,1922.3718333333334,0.0,1922.3718333333334
15,2005-04-20,2024.3432916666668,0.0,2024.3432916666668
15,2005-04-21,1935.7604583333332,0.0,1935.7604583333332
15,2005-04-22,1891.1960416666668,0.0,1891.1960416666668
15,2005-04-23,1452.2517083333332,0.0,1452.2517083333332
15,2005-04-24,1291.861,0.0,1291.861
15,2005-04-25,1845.6828750000002,0.0,1845.6828750000002
15,2005-04-26,1897.7520000000002,0.0,1897.7520000000002
15,2005-04-27,1919.2867083333333,0.0,1919.2867083333333
15,2005-04-28,1857.6790833333334,0.0,1857.6790833333334
15,2005-04-29,1765.7703333333332,0.0,1765.7703333333332
15,2005-04-30,1355.275625,0.0,1355.275625
15,2005-05-01,1224.2284583333333,0.0,1224.2284583333333
15,2005-05-02,1786.2417083333332,0.0,1786.2417083333332
15,2005-05-03,1834.16425,0.0,1834.16425
15,2005-05-04,1859.2812083333336,0.0,1859.2812083333336
15,2005-05-05,1881.5765000000001,0.0,1881.5765000000001
15,2005-05-06,1707.6535416666666,0.0,1707.6535416666666
15,2005-05-07,1214.795625,0.0,1214.795625
15,2005-05-08,1097.5829583333334,0.0,1097.5829583333334
15,2005-05-09,1736.1027916666665,0.0,1736.1027916666665
15,2005-05-10,1860.700125,0.0,1860.700125
15,2005-05-11,1927.3780833333333,0.0,1927.3780833333333
15,2005-05-12,1837.9470000000001,0.0,1837.9470000000001
15,2005-05-13,1705.087875,0.0,1705.087875
15,2005-05-14,1383.0737916666667,0.0,1383.0737916666667
15,2005-05-15,1219.4015416666666,0.0,1219.4015416666666
15,2005-05-16,1684.0853333333334,0.0,1684.0853333333334
15,2005-05-17,1675.0449583333332,0.0,1675.0449583333332
15,2005-05-18,1648.3680833333335,0.0,1648.3680833333335
15,2005-05-19,1609.2785833333335,0.0,1609.2785833333335
15,2005-05-20,1604.079375,0.0,1604.079375
15,2005-05-21,1362.9478333333334,0.0,1362.9478333333334
15,2005-05-22,1177.4931666666666,0.0,1177.4931666666666
15,2005-05-23,1118.3739583333333,0.0,1118.3739583333333
15,2005-05-24,1550.3340416666667,0.0,1550.3340416666667
15,2005-05-25,1694.0896249999998,0.0,1694.0896249999998
15,2005-05-26,1711.3263333333334,0.0,1711.3263333333334
15,2005-05-27,1628.9436249999999,0.0,1628.9436249999999
15,2005-05-28,1229.54075,0.0,1229.54075
15,2005-05-29,1140.3611666666668,0.0,1140.3611666666668
15,2005-05-30,1161.2949583333334,0.0,1161.2949583333334
15,2005-05-31,1699.1453333333332,0.0,1699.1453333333332
15,2005-06-01,1795.6012083333333,0.0,1795.6012083333333
15,2005-06-02,1750.0096666666668,0.0,1750.0096666666668
15,2005-06-03,1583.7517083333332,0.0,1583.7517083333332
15,2005-06-04,1305.1443333333334,0.0,1305.1443333333334
15,2005-06-05,1165.9661666666666,0.0,1165.9661666666666
15,2005-06-06,1759.5564583333335,0.0,1759.5564583333335
15,2005-06-07,1768.9981666666665,0.0,1768.9981666666665
15,2005-06-08,1811.8263749999999,0.0,1811.8263749999999
15,2005-06-09,1891.74425,0.0,1891.74425
15,2005-06-10,1849.109625,0.0,1849.109625
15,2005-06-11,1582.1067916666668,0.0,1582.1067916666668
15,2005-06-12,1340.758875,0.0,1340.758875
15,2005-06-13,2036.959125,0.0,2036.959125
15,2005-06-14,2054.30075,0.0,2054.30075
15,2005-06-15,1936.3089583333333,0.0,1936.3089583333333
15,2005-06-16,1786.4951666666666,0.0,1786.4951666666666
15,2005-06-17,1691.0361249999999,0.0,1691.0361249999999
15,2005-06-18,1299.9485833333333,0.0,1299.9485833333333
15,2005-06-19,1199.0474166666665,0.0,1199.0474166666665
15,2005-06-20,1796.1644166666667,0.0,1796.1644166666667
15,2005-06-21,1961.4017916666664,0.0,1961.4017916666664
15,2005-06-22,1883.7297916666666,0.0,1883.7297916666666
15,2005-06-23,1863.1746666666668,0.0,1863.1746666666668
15,2005-06-24,1778.5797916666668,0.0,1778.5797916666668
15,2005-06-25,1489.3070416666667,0.0,1489.3070416666667
15,2005-06-26,1389.9058750000002,0.0,1389.9058750000002
15,2005-06-27,2118.4997083333333,0.0,2118.4997083333333
15,2005-06-28,2155.6605833333333,0.0,2155.6605833333333
15,2005-06-29,2090.000875,0.0,2090.000875
15,2005-06-30,2004.9196666666667,0.0,2004.9196666666667
15,2005-07-01,1963.7115000000001,0.0,1963.7115000000001
15,2005-07-02,1357.1405833333333,0.0,1357.1405833333333
15,2005-07-03,1251.0901666666666,0.0,1251.0901666666666
15,2005-07-04,1318.2652083333335,0.0,1318.2652083333335
15,2005-07-05,1931.3564583333334,0.0,1931.3564583333334
15,2005-07-06,1881.2326666666668,0.0,1881.2326666666668
15,2005-07-07,1852.0961666666665,0.0,1852.0961666666665
15,2005-07-08,1640.0254583333333,0.0,1640.0254583333333
15,2005-07-09,1180.9574166666666,0.0,1180.9574166666666
15,2005-07-10,1177.9670833333332,0.0,1177.9670833333332
15,2005-07-11,1786.6651666666667,0.0,1786.6651666666667
15,2005-07-12,1983.4094166666666,0.0,1983.4094166666666
15,2005-07-13,2013.4923333333334,0.0,2013.4923333333334
15,2005-07-14,1990.2098749999998,0.0,1990.2098749999998
15,2005-07-15,1920.4595833333333,0.0,1920.4595833333333
15,2005-07-16,1470.5575,0.0,1470.5575
15,2005-07-17,1361.6275,0.0,1361.6275
15,2005-07-18,1957.67825,0.0,1957.67825
15,2005-07-19,2028.838625,0.0,2028.838625
15,2005-07-20,2011.124125,0.0,2011.124125
15,2005-07-21,1997.9168333333334,0.0,1997.9168333333334
15,2005-07-22,1927.189875,0.0,1927.189875
15,2005-07-23,1407.1980833333334,0.0,1407.1980833333334
15,2005-07-24,1305.989875,0.0,1305.989875